Flag for U.S.A. Weather past 2 weeks in Daytona Beach, Florida, U.S.A.

Now
58 °F

Fog.


Feels Like: 55 °F
Forecast: 54 / 68 °F
Wind: 13 mph from Northeast

Location: Daytona Beach Regional Airport

Current Time: Mar 6, 2015 at 7:38:40 AM

Latest Report: Mar 6, 2015 at 6:53 AM


Visibility: 6 mi

Pressure: 30.20 "Hg

Humidity: 90%

Dew point: 55 °F

Location of Daytona BeachLocation

Historic Weather in Daytona Beach — Graph

°F

Daytona Beach temperature yesterday

Maximum temperature yesterday: 86 °F (at 2:53 PM)
Minimum temperature yesterday: 65 °F (at 4:53 AM)
Average temperature yesterday: 75 °F

Past Weeks' High & Low Weather Summary

 TemperatureHumidityPressure
High100 °F (Feb 19, 6:53 AM)100% (Mar 2, 4:53 AM)30.45 "Hg (Mar 2, 4:53 AM)
Low31 °F (Feb 20, 6:53 AM)5% (Feb 19, 6:53 AM)29.63 "Hg (Feb 26, 3:53 AM)
Average63 °F77%30.17 "Hg
* Reported Feb 19 5:53 AM — Mar 6 5:53 AM, Daytona Beach, Weather by CustomWeather, © 2015

Note: Actual official high and low records may vary slightly from our data, if they occured in-between our weather recording intervals... More about our weather records

Advertising

Daytona Beach weather history for previous 24 hours

 ConditionsComfort  
Time TempWeatherWind HumidityBarometerVisibility
5:53 AM
Fri, Mar 6
59 °FLight rain. Low clouds.17 mph93%30.19 "Hg7 mi
4:53 AM62 °FLight rain. Fog.15 mph93%30.16 "Hg4 mi
3:53 AM67 °FMostly cloudy.8 mph90%30.13 "Hg7 mi
2:53 AM68 °FLight rain. Fog.8 mph90%30.13 "Hg5 mi
1:53 AM69 °FPassing clouds.3 mph90%30.12 "Hg10 mi
12:53 AM71 °FPassing clouds.3 mph84%30.14 "Hg10 mi
11:53 PM
Thu, Mar 5
70 °FPartly cloudy.3 mph84%30.14 "Hg10 mi
10:53 PM70 °FClear.3 mph81%30.14 "Hg10 mi
9:53 PM72 °FPassing clouds.5 mph76%30.14 "Hg10 mi
8:53 PM73 °FPassing clouds.6 mph71%30.12 "Hg10 mi
7:53 PM75 °FPassing clouds.6 mph66%30.09 "Hg10 mi
6:53 PM78 °FPassing clouds.7 mph58%30.07 "Hg10 mi
5:53 PM83 °FScattered clouds.8 mph48%30.05 "Hg10 mi
4:53 PM86 °FScattered clouds.16 mph45%30.03 "Hg10 mi
3:53 PM86 °FPassing clouds.13 mph46%30.03 "Hg10 mi
2:53 PM86 °FScattered clouds.13 mph46%30.04 "Hg10 mi
1:53 PM84 °FScattered clouds.17 mph48%30.06 "Hg10 mi
12:53 PM84 °FPassing clouds.15 mph49%30.07 "Hg10 mi
11:53 AM82 °FPassing clouds.16 mph55%30.11 "Hg10 mi
10:53 AM81 °FScattered clouds.14 mph58%30.12 "Hg10 mi
9:53 AM78 °FScattered clouds.9 mph71%30.14 "Hg10 mi
8:53 AM73 °FScattered clouds.9 mph88%30.15 "Hg9 mi
7:53 AM68 °FFog.7 mph96%30.12 "Hg2 mi
Weather by CustomWeather, © 2015

See weather overviewHow to use our weather pages